User: anonymous   Login
Location: Blue Mountain Vista Observatory
(40.6992°N, 75.9422°W)
Time: 09:44:30
(UTC-05:00)
Language:

CZ-4C R/B - Orbit

View from above orbital plane
View from above orbital plane
View from above satellite
View from above satellite

Ground track
Ground track

The orbit data is extracted from the following two-line orbital elements,

1 36416U 10009D   17021.87652821 -.00000076 +00000-0 +14322-4 0  9990
2 36416 063.4415 296.4160 0372756 356.6870 003.1706 13.69510517344172
Epoch (UTC): 21 January 2017 21:02:12
Eccentricity: 0.0372756
inclination: 63.4415°
perigee height: 726 km
apogee height: 1276 km
right ascension of ascending node: 296.4160°
argument of perigee: 356.6870°
revolutions per day: 13.69510517
mean anomaly at epoch: 3.1706°
orbit number at epoch: 34417

The dashed part of the orbit path shows where the satellite is in the earth's shadow,  

DLR